Flag for Brazil Weather past 2 weeks in Rio Branco, Acre, Brazil

Now
75 °F

Clear.


Feels Like: 74 °F
Forecast: 71 / 89 °F
Wind: No wind

Location: Rio Branco Airport

Current Time: May 25, 2015 at 7:27:09 PM

Latest Report: May 25, 2015 at 7:00 PM


Visibility: 10 mi

Pressure: 29.89 "Hg

Humidity: 94%

Dew point: 73 °F

Location of Rio BrancoLocation

Historic Weather in Rio Branco — Graph

°F

Rio Branco temperature yesterday

Maximum temperature yesterday: 88 °F (at 2:00 PM)
Minimum temperature yesterday: 72 °F (at 1:00 AM)
Average temperature yesterday: 79 °F

Past Weeks' High & Low Weather Summary

 TemperatureHumidityPressure
High90 °F (May 19, 3:00 PM)100% (May 10, 7:00 PM)30.07 "Hg (May 10, 7:00 PM)
Low37 °F (May 11, 3:00 PM)22% (May 15, 10:00 AM)29.80 "Hg (May 24, 3:00 PM)
Average76 °F89%29.94 "Hg
* Reported May 10 6:00 PM — May 25 6:00 PM, Rio Branco, Weather by CustomWeather, © 2015

Note: Actual official high and low records may vary slightly from our data, if they occured in-between our weather recording intervals... More about our weather records

Advertising

Rio Branco weather history for previous 24 hours

 ConditionsComfort  
Time TempWeatherWind HumidityBarometerVisibility
6:00 PM
Mon, May 25
75 °FPassing clouds.2 mph94%29.86 "HgN/A
5:00 PM79 °FPassing clouds.2 mph84%29.83 "HgN/A
4:00 PM84 °FPassing clouds.1 mph66%29.83 "HgN/A
3:00 PM82 °FScattered clouds.2 mph74%29.83 "HgN/A
2:00 PM82 °FPartly sunny.2 mph74%29.89 "HgN/A
1:00 PM82 °FBroken clouds.5 mph74%29.92 "HgN/A
12:00 PM81 °FPartly sunny.5 mph79%29.95 "HgN/A
11:00 AM81 °FPartly sunny.5 mph79%29.98 "HgN/A
10:00 AM79 °FBroken clouds.3 mph84%29.98 "HgN/A
9:00 AM77 °FPartly sunny.5 mph89%29.98 "HgN/A
8:00 AM75 °FPartly sunny.5 mph94%29.98 "Hg5 mi
7:00 AM73 °FFog.3 mph100%29.95 "Hg2 mi
6:00 AM73 °FFog.1 mph94%29.92 "Hg1 mi
5:00 AM72 °FFog.No wind100%29.92 "Hg1 mi
4:00 AM73 °FPassing clouds.3 mph94%29.89 "HgN/A
3:00 AM73 °FPartly cloudy.3 mph94%29.89 "HgN/A
2:00 AM73 °FPartly cloudy.5 mph100%29.89 "HgN/A
1:00 AM75 °FPartly cloudy.5 mph94%29.92 "HgN/A
12:00 AM75 °FPassing clouds.7 mph94%29.92 "HgN/A
11:00 PM
Sun, May 24
75 °FPassing clouds.5 mph94%29.92 "HgN/A
10:00 PM75 °FClear.3 mph94%29.89 "Hg10 mi
9:00 PM77 °FPassing clouds.3 mph89%29.89 "HgN/A
8:00 PM79 °FPassing clouds.8 mph84%29.89 "HgN/A
7:00 PM79 °FPassing clouds.2 mph89%29.86 "HgN/A
Weather by CustomWeather, © 2015

See weather overviewHow to use our weather pages